Weather History for K40J - October, 2011

Change the Weather History Date:

Friday, October 14, 2011

  Actual Average (KCTY) Record (KCTY)
Temperature  
Mean Temperature 70 °F 71 °F  
Max Temperature 84 °F 83 °F 91 °F (2012)
Min Temperature 57 °F 59 °F 46 °F (2000)
Degree Days  
Heating Degree Days 0 1  
Month to date heating degree days 4  
Since 1 July heating degree days 4  
Cooling Degree Days 4 7  
Month to date cooling degree days 118  
Year to date cooling degree days 2460  
Growing Degree Days 20 (Base 50)    
Moisture  
Dew Point 57 °F    
Average Humidity 69    
Maximum Humidity 93    
Minimum Humidity 27    
Precipitation  
Precipitation 0.00 in 0.10 in 0.96 in (2014)
Month to date precipitation 1.85  
Year to date precipitation 41.68  
Sea Level Pressure  
Sea Level Pressure 29.90 in    
Wind  
Wind Speed 4 mph (NW)    
Max Wind Speed 10 mph    
Max Gust Speed -    
T = Trace of Precipitation, MM = Missing Value Source: NWS Daily Summary

Daily Weather History Graph

Daily Weather History Graph

Search for Another Location

Airport or City:

Trip Planner

Search our weather history database for the weather conditions in past years. The results will help you decide how hot, cold, wet, or windy it might be!

Date:

Astronomy

Oct. 14, 2011 Rise Set
Actual Time 7:35 AM EDT 7:04 PM EDT
Civil Twilight 7:11 AM EDT 7:28 PM EDT
Nautical Twilight 6:43 AM EDT 7:56 PM EDT
Astronomical Twilight 6:15 AM EDT 8:24 PM EDT
Moon 8:33 PM EDT (10/14) 9:48 AM EDT (10/14)
Length of Visible Light 12h 17m
Length of Day
11h 29m
Waning Gibbous, 94% of the Moon is Illuminated
Oct 14
Waning Gibbous
Oct 19
Last Quarter
Oct 26
New
Nov 2
First Quarter
Nov 10
Full

Hourly Weather History & Observations

Time (EDT) Temp. Dew Point Humidity Pressure Visibility Wind Dir Wind Speed Gust Speed Precip Events Conditions
12:53 AM 72.0 °F 66.9 °F 84% 29.80 in - NNW 9.2 mph - N/A   Unknown
1:53 AM 70.0 °F 64.9 °F 84% 29.81 in - NNW 3.5 mph - N/A   Unknown
2:53 AM 66.9 °F 63.0 °F 87% 29.82 in - Calm Calm - N/A   Unknown
3:53 AM 63.0 °F 61.0 °F 93% 29.82 in - Calm Calm - N/A   Unknown
4:53 AM 62.1 °F 60.1 °F 93% 29.83 in - Calm Calm - N/A   Unknown
5:53 AM 61.0 °F 57.9 °F 90% 29.84 in - Calm Calm - N/A   Unknown
6:53 AM 60.1 °F 57.0 °F 90% 29.86 in - Calm Calm - N/A   Unknown
7:53 AM 57.9 °F 55.9 °F 93% 29.88 in - Calm Calm - N/A   Unknown
8:53 AM 64.0 °F 61.0 °F 90% 29.90 in - NW 4.6 mph - N/A   Unknown
9:53 AM 70.0 °F 59.0 °F 68% 29.92 in - North 5.8 mph - N/A   Unknown
10:53 AM 75.0 °F 55.9 °F 51% 29.94 in - North 10.4 mph - N/A   Unknown
11:53 AM 78.1 °F 53.1 °F 42% 29.94 in - North 8.1 mph - N/A   Unknown
12:53 PM 80.1 °F 52.0 °F 38% 29.93 in - Variable 4.6 mph - N/A   Unknown
1:53 PM 82.0 °F 51.1 °F 34% 29.91 in - Variable 4.6 mph - N/A   Unknown
2:53 PM 82.0 °F 50.0 °F 33% 29.89 in - Variable 5.8 mph - N/A   Unknown
3:53 PM 82.9 °F 48.9 °F 31% 29.88 in - WNW 4.6 mph - N/A   Unknown
4:53 PM 82.9 °F 46.0 °F 27% 29.89 in - NW 9.2 mph - N/A   Unknown
5:53 PM 78.1 °F 57.0 °F 48% 29.90 in - SW 8.1 mph - N/A   Unknown
6:53 PM 73.9 °F 57.9 °F 57% 29.92 in - SSW 3.5 mph - N/A   Unknown
7:53 PM 70.0 °F 57.9 °F 65% 29.94 in - Calm Calm - N/A   Unknown
8:53 PM 64.0 °F 57.9 °F 80% 29.96 in - Calm Calm - N/A   Unknown
9:53 PM 62.1 °F 57.9 °F 86% 29.99 in - Calm Calm - N/A   Unknown
10:53 PM 59.0 °F 55.9 °F 90% 30.00 in - Calm Calm - N/A   Unknown
11:53 PM 57.9 °F 55.9 °F 93% 30.01 in - Calm Calm - N/A   Unknown